Time,TemperatureF,DewpointF,PressureIn,WindDirection,WindDirectionDegrees,WindSpeedMPH,WindSpeedGustMPH,Humidity,HourlyPrecipIn,Conditions,Clouds,dailyrainin,SoftwareType,DateUTC
2013-11-06 08:03:00,46.1,43.7,29.92,North,0,0.0,0.0,91,0.00,,,0.00,WUHU216HW,2013-11-06 16:03:00,
2013-11-06 08:04:00,46.1,43.7,29.92,North,0,0.0,0.0,91,0.00,,,0.00,WUHU216HW,2013-11-06 16:04:00,
2013-11-06 08:09:00,46.1,43.7,29.92,North,0,0.0,0.0,91,0.00,,,0.00,WUHU216HW,2013-11-06 16:09:00,
2013-11-06 09:03:00,48.2,45.8,29.93,North,0,0.0,0.0,91,0.00,,,0.00,WUHU216HW,2013-11-06 17:03:00,
2013-11-06 09:08:00,48.2,45.8,29.93,North,0,0.0,0.0,91,0.00,,,0.00,WUHU216HW,2013-11-06 17:08:00,
2013-11-06 10:03:00,49.3,45.9,29.92,North,0,2.5,2.5,88,0.00,,,0.00,WUHU216HW,2013-11-06 18:03:00,
2013-11-06 10:08:00,49.3,45.9,29.92,North,0,2.5,2.5,88,0.00,,,0.00,WUHU216HW,2013-11-06 18:08:00,
2013-11-06 11:03:00,50.4,46.3,29.92,NE,45,0.9,0.9,86,0.00,,,0.00,WUHU216HW,2013-11-06 19:03:00,
2013-11-06 11:08:00,50.4,46.3,29.92,NE,45,0.9,0.9,86,0.00,,,0.00,WUHU216HW,2013-11-06 19:08:00,
2013-11-06 12:03:00,51.8,47.4,29.90,NE,45,0.2,0.2,85,0.00,,,0.00,WUHU216HW,2013-11-06 20:03:00,
2013-11-06 12:08:00,51.8,47.4,29.90,NE,45,0.2,0.2,85,0.00,,,0.00,WUHU216HW,2013-11-06 20:08:00,
2013-11-06 13:03:00,52.9,47.6,29.88,North,0,2.5,2.5,82,0.00,,,0.00,WUHU216HW,2013-11-06 21:03:00,
2013-11-06 13:08:00,52.9,47.6,29.88,North,0,2.5,2.5,82,0.00,,,0.00,WUHU216HW,2013-11-06 21:08:00,
2013-11-06 14:03:00,52.7,46.8,29.86,NNE,23,2.0,2.0,80,0.00,,,0.00,WUHU216HW,2013-11-06 22:03:00,
2013-11-06 14:08:00,52.7,46.8,29.86,NNE,23,2.0,2.0,80,0.00,,,0.00,WUHU216HW,2013-11-06 22:08:00,
2013-11-06 15:03:00,52.7,46.4,29.84,NNE,23,2.5,2.5,79,0.00,,,0.00,WUHU216HW,2013-11-06 23:03:00,
2013-11-06 15:08:00,52.7,46.4,29.84,NNE,23,2.5,2.5,79,0.00,,,0.00,WUHU216HW,2013-11-06 23:08:00,
2013-11-06 16:03:00,52.0,46.7,29.82,North,0,0.2,0.2,82,0.00,,,0.00,WUHU216HW,2013-11-07 00:03:00,
2013-11-06 16:08:00,52.0,46.7,29.82,North,0,0.2,0.2,82,0.00,,,0.00,WUHU216HW,2013-11-07 00:08:00,
2013-11-06 17:03:00,51.5,46.2,29.80,NNW,338,0.9,0.9,82,0.00,,,0.00,WUHU216HW,2013-11-07 01:03:00,
2013-11-06 17:08:00,51.5,46.2,29.80,NNW,338,0.9,0.9,82,0.00,,,0.00,WUHU216HW,2013-11-07 01:08:00,
2013-11-06 18:02:00,50.9,46.5,29.79,North,0,0.0,0.0,85,0.00,,,0.00,WUHU216HW,2013-11-07 02:02:00,
2013-11-06 18:03:00,50.9,46.5,29.79,North,0,0.0,0.0,85,0.00,,,0.00,WUHU216HW,2013-11-07 02:03:00,
2013-11-06 18:08:00,50.9,46.5,29.79,North,0,0.0,0.0,85,0.00,,,0.00,WUHU216HW,2013-11-07 02:08:00,
2013-11-06 19:02:00,50.4,46.6,29.79,NW,315,0.0,0.0,87,0.00,,,0.00,WUHU216HW,2013-11-07 03:02:00,
2013-11-06 19:03:00,50.4,46.6,29.79,NW,315,0.0,0.0,87,0.00,,,0.00,WUHU216HW,2013-11-07 03:03:00,
2013-11-06 19:08:00,50.4,46.6,29.79,NW,315,0.0,0.0,87,0.00,,,0.00,WUHU216HW,2013-11-07 03:08:00,
2013-11-06 20:02:00,50.0,46.5,29.76,NNW,338,0.0,0.0,88,0.00,,,0.00,WUHU216HW,2013-11-07 04:02:00,
2013-11-06 20:03:00,50.0,46.5,29.76,NNW,338,0.0,0.0,88,0.00,,,0.00,WUHU216HW,2013-11-07 04:03:00,
2013-11-06 20:08:00,50.0,46.5,29.76,NNW,338,0.0,0.0,88,0.00,,,0.00,WUHU216HW,2013-11-07 04:08:00,
2013-11-06 21:02:00,50.0,46.9,29.73,NNW,338,0.0,0.0,89,0.00,,,0.00,WUHU216HW,2013-11-07 05:02:00,
2013-11-06 21:03:00,50.0,46.9,29.73,NNW,338,0.0,0.0,89,0.00,,,0.00,WUHU216HW,2013-11-07 05:03:00,
2013-11-06 21:06:00,50.0,46.9,29.73,NNW,338,0.0,0.0,89,0.00,,,0.00,WUHU216HW,2013-11-07 05:06:00,
2013-11-06 21:11:00,50.0,46.9,29.73,NNW,338,0.0,0.0,89,0.00,,,0.00,WUHU216HW,2013-11-07 05:11:00,
2013-11-06 22:02:00,50.0,46.9,29.70,SSE,158,0.9,0.9,89,0.00,,,0.00,WUHU216HW,2013-11-07 06:02:00,
2013-11-06 22:03:00,50.0,46.9,29.70,SSE,158,0.9,0.9,89,0.00,,,0.00,WUHU216HW,2013-11-07 06:03:00,
2013-11-06 22:08:00,50.0,46.9,29.70,SSE,158,0.9,0.9,89,0.00,,,0.00,WUHU216HW,2013-11-07 06:08:00,